Other Public Products
Issued by NWS Grand Forks, ND

Home | Current Version | Previous Version | Graphics & Text | Print | Product List | Glossary On
Versions: 1 2 3 4 5 6 7 8 9 10 11 12 13 14 15 16 17 18 19 20 21 22 23 24 25 26 27 28 29 30 31 32 33 34 35 36 37 38 39 40 41 42 43 44 45 46 47 48 49 50
000
FPUS83 KFGF 291031
OPUFGF
PRAIRIE TO PINES WEATHER ROUNDUP
NATIONAL WEATHER SERVICE EASTERN NORTH DAKOTA/GRAND FORKS ND
500 AM CDT WED JUL 29 2015

 **SATELLITE DATA USED TO AUGMENT SKY COVER AT AUTOMATED STATIONS**
 *****  WEATHER ACROSS EASTERN NORTH DAKOTA  *****

CITY           SKY/WX    TMP DP  RH WIND       PRES   REMARKS
GRAND FORKS    CLOUDY    65  54  67 W26G35    29.60R
GRAND FORKS AF CLOUDY    65  55  69 W23G38    29.61R
GRAND CITY NWS   N/A     64 N/A N/A W10         N/A
BUXTON         NOT AVBL
DEVILS LAKE    CLOUDY    63  50  63 W35G48    29.67R
FARGO          MOCLDY    64  50  60 SW22G31   29.74R
WAHPETON ARPT  SUNNY     63  46  55 W20G29    29.84R
$$

 *****  WEATHER ACROSS CENTRAL AND WESTERN NORTH DAKOTA  *****

CITY           SKY/WX    TMP DP  RH WIND       PRES   REMARKS
JAMESTOWN      CLEAR     62  49  62 W24G32    29.80R
BISMARCK       CLEAR     62  47  57 W18       29.94R
MINOT          MOCLDY    63  51  65 W17       29.81R
MINOT AFB      CLOUDY    63  55  73 W21G32    29.79R
GARRISON         N/A     58  51  78 W16       29.88R
WILLISTON      MOCLDY    58  50  75 W17       29.95R
DICKINSON      PTCLDY    57  44  62 W16       30.01R
HETTINGER      CLEAR     54  40  59 W13       30.09R
$$

 *****  OTHER OBSERVATIONS NORTHEAST NORTH DAKOTA  *****

CITY           SKY/WX    TMP DP  RH WIND       PRES   REMARKS
WALHALLA       FAIR      63  61  94 MISG      29.53R
LANGDON        CLOUDY    59  57  94 W28G37    29.59R
CAVALIER       CLOUDY    63  55  77 W23G32    29.53R
GRAFTON        CLOUDY    64  57  77 W26G37    29.57R
CANDO          CLOUDY    59  55  88 W29G39    29.66R
FORT TOTTEN      N/A     63  53  69 NW16      29.95S
ROLLA          PTSUNNY   57  55  94 NW26G45   29.66R
RUGBY          NOT AVBL
 ***** THE ABOVE OBSERVATIONS ARE NON NWS ARE NOT QUALITY
        CONTROLLED AND MAY MIS-REPORT RAIN FOR SNOW...
$$

 *****  OTHER OBSERVATIONS SOUTHEAST NORTH DAKOTA *****

CITY           SKY/WX    TMP DP  RH WIND       PRES   REMARKS
COOPERSTOWN    NOT AVBL
VALLEY CITY    NOT AVBL
OAKES            N/A     59  50  72 W17G25    29.89R
GWINNER        FAIR      61  50  67 SW17G23   29.87R
SHEYENNE NWR     N/A     62  50  65 W14       29.95S
BUFFALO        NOT AVBL
WYNDMERE         N/A     63  52  67 W14         N/A
 ***** THE ABOVE OBSERVATIONS ARE NON NWS ARE NOT QUALITY
       CONTROLLED AND MAY MIS-REPORT RAIN FOR SNOW...
$$

  *****  WEATHER ACROSS NORTHERN MINNESOTA  *****

CITY           SKY/WX    TMP DP  RH WIND       PRES   REMARKS
FLAG ISLAND    CLOUDY    63  59  88 SW25G33   29.40R
WARROAD        CLOUDY    61  57  88 SW15G32   29.47R
ROSEAU         CLOUDY    63  57  82 SW14G20   29.48R
HALLOCK        CLOUDY    63  55  77 W23G29    29.51R
THF RVR FALLS  CLOUDY    63  54  72 W18G30    29.59R
HALSTAD        NOT AVBL
FOSSTON        CLOUDY    61  54  77 SW23G36   29.67R
BAUDETTE       CLOUDY    61  54  77 SW22G35   29.50R
WASKISH        CLOUDY    63  57  82 SW21G41   29.57S
CROOKSTON      CLOUDY    64  55  72 W28G33    29.62S
$$
  *****  WEATHER ACROSS CENTRAL AND WEST MINNESOTA  *****

CITY           SKY/WX    TMP DP  RH WIND       PRES   REMARKS
BEMIDJI        CLOUDY    62  52  69 W20G35    29.66S
PARK RAPIDS    CLOUDY    65  50  58 W23G32    29.73R
WADENA         CLOUDY    63  48  59 SW21G30   29.79R
DETROIT LAKES  CLOUDY    63  50  63 W22G31    29.77R
MOORHEAD       PTCLDY    63  52  67 W17G24    29.77S
FERGUS FALLS   CLEAR     63  50  63 W21G28    29.83R
ELBOW LAKE     FAIR      63  49  60 W23G31    29.86R
MORRIS MN      CLEAR     64  50  59 W16       29.89S
STAPLES        CLOUDY    63  46  55 W20G25    29.80R
WHEATON        CLEAR     63  48  59 SW16      29.90S
$$
  *****  WEATHER ELSEWHERE ACROSS MINNESOTA  *****

CITY           SKY/WX    TMP DP  RH WIND       PRES   REMARKS
DULUTH         CLEAR     65  47  52 SW17G26   29.72F
INTRNTL FALLS  LGT RAIN  63  52  67 SW21G30   29.53F
ELY            CLEAR     63  46  55 SW12      29.64S
CLOQUET        NOT AVBL
BRAINERD       CLOUDY    65  48  54 SW23G36   29.78S
HIBBING        CLOUDY    64  47  53 SW14G22   29.67F
ALEXANDRIA     CLEAR     65  49  56 W22G33    29.87R
SAINT CLOUD    CLEAR     67  48  50 W23G31    29.86S
MINNEAPOLIS    PTCLDY    67  53  61 W13       29.92S
$$

  *****  WEATHER ACROSS SOUTH DAKOTA  *****

CITY           SKY/WX    TMP DP  RH WIND       PRES   REMARKS
SIOUX FALLS    CLEAR     61  52  72 W5        30.08R
BROOKINGS      CLEAR     57  48  72 SW9       30.06R
WATERTOWN      CLEAR     61  48  62 W14       29.99R
HURON          CLEAR     62  48  60 W14G22    30.03R
SISSETON         N/A     64  48  56 W18G26    29.89F
ABERDEEN       CLEAR     56  49  77 SW9       29.97R
MITCHELL       CLEAR     61  51  70 SW12      30.08R
PIERRE         CLEAR     62  44  51 W13       30.09R
MOBRIDGE       CLEAR     61  46  57 W7        30.00R
RAPID CITY     CLEAR     49  42  77 CALM      30.22R
$$

  *****  SOME WEATHER IN NEARBY STATES *****

CITY           SKY/WX    TMP DP  RH WIND       PRES   REMARKS
GLASGOW MT     PTCLDY    55  47  74 W5        30.05R
GREAT FALLS MT CLEAR     54  39  57 SW12      30.20R
CHEYENNE WY    CLEAR     51  31  46 NW6       30.35R
SCOTTSBLUFF NE CLEAR     50  46  86 NW3       30.29R
OMAHA NE       PTCLDY    65  62  90 N10       30.10R
DES MOINES IA  CLOUDY    73  69  87 W5        30.05R
DAVENPORT IA   CLOUDY    73  71  93 W8        30.00R
CHICAGO IL     CLOUDY    76  70  82 SW6       29.92F
EAU CLAIRE WI  PTCLDY    65  58  78 SW7       29.91R
LA CROSSE WI   CLOUDY    72  59  63 W10       29.96R
$$

  *****  SOME NATIONAL WEATHER *****

CITY           SKY/WX    TMP DP  RH WIND       PRES   REMARKS
LA GUARDIA NY  PTCLDY    80  65  59 CALM      29.96R
RALEIGH NC     MOCLDY    76  69  79 SE5       30.01R
ATLANTA GA     PTCLDY    77  71  82 NW9       29.97R
NEW ORLEANS LA PTCLDY    80  74  81 CALM      29.99R
OKLAHOMA CITY  PTCLDY    71  68  90 S7        29.99S
ALBUQUERQUE NM MOCLDY    73  52  47 E9        30.23S
SALT LAKE CITY CLEAR     58  36  43 SE6       30.25S
LOS ANGELES CA CLOUDY    66  63  90 NW5       29.90F
BOISE ID       CLEAR     60  37  42 S3        30.21R
SEATTLE WA     CLEAR     64  53  67 NE7       30.19F
$$

*** WEATHER ACROSS MANITOBA...SASKATCHEWAN AND ONTARIO ***
                ***ONTARIO***

CITY           SKY/WX    TMP DP  RH WIND       PRES   REMARKS
GERALDTON      MOCLDY    66  61  82 S13       29.63F
THUNDER BAY    PTCLDY    68  55  64 SW8       29.62F
SIOUX LOOKOUT  CLOUDY    64  52  63 SW21G36   29.44F
TORONTO        PTCLDY    70  63  78 NW2       29.96F
BIG TROUT LK   MOCLDY    68  64  88 S10       29.37F
PICKLE LAKE    NOT AVBL
DRYDEN         CLOUDY    64  52  63 SW20G38   29.43S
KENORA         LGT RAIN  61  59  94 SW21G33   29.37S
$$
                *** MANITOBA***

CITY           SKY/WX    TMP DP  RH WIND       PRES   REMARKS
BRANDON        CLOUDY    61  55  82 NW25G38   29.57R
DAUPHIN        CLOUDY    61  55  82 NW17G30   29.48R
ISLAND LAKE    PTCLDY    64  59  82 SE9       29.27F
PILOT MOUND      N/A     57  55  94 W20G30      N/A
THE PAS        CLOUDY    63  55  77 NW20G26   29.49R
THOMPSON       CLOUDY    59  57  94 N15G23    29.31F
WINNIPEG       MOCLDY    61  59  94 W17G24    29.38R
LYNN LAKE        N/A    N/A N/A N/A MISG        N/A
CHURCHILL      LGT RAIN  48  48 100 NE15      29.60F FOG
GILLAM         DRIZZLE   59  57  94 NE20G33   29.28F
$$
                ***SASKATCHEWAN***

CITY           SKY/WX    TMP DP  RH WIND       PRES   REMARKS
ESTEVAN        CLOUDY    59  52  77 W18G26    29.84R
KINDERSLEY     PTCLDY    52  48  87 W9        29.99R
LLOYDMINSTER   CLEAR     55  48  76 W12       29.94R
PRINCE ALBERT  MOCLDY    55  52  88 W8        29.78R
REGINA         PTCLDY    55  52  88 NW12      29.86R



USA.gov is the U.S. government's official web portal to all federal, state and local government web resources and services.